Regional Weather Roundup
Issued by NWS

Home | Current Version | Previous Version | Graphics & Text | Print | Product List | Glossary On
Versions: 1 2 3 4 5 6 7 8 9 10 11 12 13 14 15 16 17 18 19 20 21 22 23 24 25 26 27 28 29 30 31 32 33 34 35 36 37 38 39 40 41 42 43 44 45 46 47 48 49 50
000
ASUS45 KBOU 270307
RWRCO

WEATHER ROUNDUP FOR COLORADO
NATIONAL WEATHER SERVICE DENVER/BOULDER CO
800 PM MST MON JAN 26 2015

NOTE: "FAIR" INDICATES FEW OR NO CLOUDS BELOW 12000 FEET WITH NO
SIGNIFICANT WEATHER AND/OR OBSTRUCTIONS TO VISIBILITY.

COZ001>005-013-030-031-270400-
...NORTHWEST COLORADO...

CITY           SKY/WX    TMP DP  RH WIND       PRES   REMARKS
CRAIG          PTCLDY    22  19  89 CALM      30.34S
HAYDEN         PTCLDY    34  23  64 E9        30.33F WCI  26
MEEKER         CLEAR     27  21  78 N5        30.32S WCI  22
MOUNT WERNER   NOT AVBL
STEAMBOAT SPGS PTCLDY    29  24  80 CALM      30.35S
WALDEN         CLEAR     28  23  80 SE8       30.39F WCI  20
$$

COZ006>008-011-270400-
...WEST CENTRAL VALLEYS...

CITY           SKY/WX    TMP DP  RH WIND       PRES   REMARKS
GRAND JUNCTION CLEAR     41  27  57 N9        30.28R
MONTROSE       PTCLDY    34  23  64 S8        30.32R WCI  27
EAGLE          CLEAR     30  27  86 VRB5      30.40R WCI  25
RIFLE          PTCLDY    36  26  67 E5        30.30R
DELTA          PTCLDY    39  25  56 CALM      30.30R
NUCLA          PTCLDY    39  23  52 E9        30.37R
$$

COZ017>023-064>068-270400-
...SOUTHWEST COLORADO...

CITY           SKY/WX    TMP DP  RH WIND       PRES   REMARKS
DURANGO        MOCLDY    34  27  75 N5        30.38R WCI  30
CORTEZ         CLEAR     35  24  64 NE3       30.33S
PAGOSA SPRINGS MOCLDY    39  22  51 N5        30.44R
TELLURIDE      NOT AVBL
WOLF CREEK PAS NOT AVBL
$$

COZ009-010-012-014-032>034-037-058>063-270400-
...CENTRAL COLORADO...

CITY           SKY/WX    TMP DP  RH WIND       PRES   REMARKS
ASPEN          CLEAR     32  21  64 S7        30.37S WCI  26
BUENA VISTA    CLEAR     33  23  68 CALM      30.40S
COPPER MTN     CLEAR     41   9  26 S22       30.55S
BERTHOUD PASS  FAIR      32  27  80 MISG      30.59S
COTTONWOOD PAS CLEAR     48   9  20 CALM      30.47S
GUNNISON       PTCLDY    10   0  61 NE5       30.48R WCI   2
KREMMLING      CLEAR     18  14  86 CALM      30.44S
LEADVILLE      CLEAR     32  13  45 CALM      30.45S
MONARCH PASS   PTCLDY    36  10  35 S10       30.66F
SALIDA         CLEAR     40  21  46 SW3       30.45S
SUNLIGHT       CLEAR     37  16  41 CALM      30.51S
WILKERSON PASS CLEAR     36  10  35 SW6       30.55F
$$

COZ069>075-270400-
...SAN LUIS VALLEY/SANGRE DE CRISTO MOUNTAINS...

CITY           SKY/WX    TMP DP  RH WIND       PRES   REMARKS
ALAMOSA        PTCLDY    25  18  74 NW6       30.41S WCI  18
LA VETA PASS   NOT AVBL
SAGUACHE       PTCLDY    27  21  80 N5        30.43S WCI  21
$$

COZ035-036-038>040-270400-
...NORTHERN COLORADO FRONT RANGE...

CITY           SKY/WX    TMP DP  RH WIND       PRES   REMARKS
DENVER INTL AP CLEAR     41  28  60 S13       30.22R
DMNS CITY PARK   N/A     53  22  29 S6G12     30.21F
AURORA         CLEAR     48  24  39 S12       30.23S
FRONT RANGE AP NOT AVBL
ERIE MUNI ARPT CLEAR     45  23  41 CALM      30.21S
BOULDER MUN AP CLEAR     57  23  26 SW9       30.20S
CENTENNIAL     CLEAR     50  26  39 S12       30.24S
BROOMFIELD     CLEAR     50  21  32 SW8       30.23S
FORT COLLINS   CLEAR     50  25  37 S6        30.21S
LONGMONT       CLEAR     46  24  41 W5        30.22F
$$

COZ041-046-047-076>085-087-088-270400-
...PIKES PEAK/PALMER DIVIDE AND SOUTHERN FOOTHILLS...

CITY           SKY/WX    TMP DP  RH WIND       PRES   REMARKS
COLO. SPRINGS  CLEAR     40  27  59 NE3       30.30R
A. F. ACADEMY  CLEAR     36  25  65 N10       30.31R
ELLICOTT       CLEAR    N/A N/A N/A SW3       30.28S
FALCON         CLEAR     38  24  57 W3        30.33S
FORT CARSON    CLEAR     43  26  52 NW8       30.27R
LIMON          CLEAR     30  24  78 N7        30.24S WCI  23
MONUMENT HILL  CLEAR     39  27  60 S12       30.31S
TRINIDAD       CLEAR     44  29  55 SW16      30.29S
$$

COZ042>045-048>051-090-091-270400-
...NORTHEAST COLORADO...

CITY           SKY/WX    TMP DP  RH WIND       PRES   REMARKS
GREELEY ARPT   CLEAR     41  27  56 CALM      30.17S
AKRON          CLEAR     47  28  47 SW10      30.17S
BURLINGTON     CLEAR     40  31  70 W8        30.18S
WRAY           CLEAR     41  31  68 W3        30.14S
STERLING       CLEAR     41  32  70 SW5       30.15S
HOLYOKE        CLEAR     37  32  81 W7        30.13S
FORT MORGAN    CLEAR     47  26  43 W8        30.19R
$$

COZ086-089-092>099-270400-
...SOUTHEAST COLORADO...

CITY           SKY/WX    TMP DP  RH WIND       PRES   REMARKS
PUEBLO         CLEAR     39  29  67 CALM      30.23R
LA JUNTA       CLEAR     50  34  54 SW14      30.20S
LAMAR          CLEAR     37  32  82 SW5       30.17F
SPRINGFIELD      N/A     38  30  73 W3        30.23S
$$


USA.gov is the U.S. government's official web portal to all federal, state and local government web resources and services.